owner,sensor,date,latitude,longitude,sea_surface_height_above_sea_level,qcFlag 
COMPS,ioos:station:USF.COMPS:ARP:1,2011-03-01T00:00:00Z,28.4330,-82.6670,-0.001,1111122 
COMPS,ioos:station:USF.COMPS:ARP:1,2011-03-01T00:06:00Z,28.4330,-82.6670,0.01,1111122 
COMPS,ioos:station:USF.COMPS:ARP:1,2011-03-01T00:12:00Z,28.4330,-82.6670,0.022,1111122 
COMPS,ioos:station:USF.COMPS:ARP:1,2011-03-01T00:18:00Z,28.4330,-82.6670,0.033,1111122 
COMPS,ioos:station:USF.COMPS:ARP:1,2011-03-01T00:24:00Z,28.4330,-82.6670,0.043,1111122 
COMPS,ioos:station:USF.COMPS:ARP:1,2011-03-01T00:30:00Z,28.4330,-82.6670,0.053,1111122 
COMPS,ioos:station:USF.COMPS:ARP:1,2011-03-01T00:36:00Z,28.4330,-82.6670,0.061,1111122 
COMPS,ioos:station:USF.COMPS:ARP:1,2011-03-01T00:42:00Z,28.4330,-82.6670,0.067,1111122 
COMPS,ioos:station:USF.COMPS:ARP:1,2011-03-01T00:48:00Z,28.4330,-82.6670,0.078,1111122 
COMPS,ioos:station:USF.COMPS:ARP:1,2011-03-01T00:54:00Z,28.4330,-82.6670,0.085,1111122 
COMPS,ioos:station:USF.COMPS:ARP:1,2011-03-01T01:00:00Z,28.4330,-82.6670,0.098,1111122 
COMPS,ioos:station:USF.COMPS:ARP:1,2011-03-01T01:06:00Z,28.4330,-82.6670,0.109,1111122 
COMPS,ioos:station:USF.COMPS:ARP:1,2011-03-01T01:12:00Z,28.4330,-82.6670,0.121,1111122 
COMPS,ioos:station:USF.COMPS:ARP:1,2011-03-01T01:18:00Z,28.4330,-82.6670,0.135,1111122 
COMPS,ioos:station:USF.COMPS:ARP:1,2011-03-01T01:24:00Z,28.4330,-82.6670,0.149,1111122 
COMPS,ioos:station:USF.COMPS:ARP:1,2011-03-01T01:30:00Z,28.4330,-82.6670,0.164,1111122 
COMPS,ioos:station:USF.COMPS:ARP:1,2011-03-01T01:36:00Z,28.4330,-82.6670,0.178,1111122 
COMPS,ioos:station:USF.COMPS:ARP:1,2011-03-01T01:42:00Z,28.4330,-82.6670,0.191,1111122 
COMPS,ioos:station:USF.COMPS:ARP:1,2011-03-01T01:48:00Z,28.4330,-82.6670,0.204,1111122 
COMPS,ioos:station:USF.COMPS:ARP:1,2011-03-01T01:54:00Z,28.4330,-82.6670,0.216,1111122 
COMPS,ioos:station:USF.COMPS:ARP:1,2011-03-01T02:00:00Z,28.4330,-82.6670,0.23,1111122 
COMPS,ioos:station:USF.COMPS:ARP:1,2011-03-01T02:06:00Z,28.4330,-82.6670,0.24,1111122 
COMPS,ioos:station:USF.COMPS:ARP:1,2011-03-01T02:12:00Z,28.4330,-82.6670,0.252,1111122 
COMPS,ioos:station:USF.COMPS:ARP:1,2011-03-01T02:18:00Z,28.4330,-82.6670,0.261,1111122 
COMPS,ioos:station:USF.COMPS:ARP:1,2011-03-01T02:24:00Z,28.4330,-82.6670,0.27,1111122 
COMPS,ioos:station:USF.COMPS:ARP:1,2011-03-01T02:30:00Z,28.4330,-82.6670,0.278,1111122 
COMPS,ioos:station:USF.COMPS:ARP:1,2011-03-01T02:36:00Z,28.4330,-82.6670,0.288,1111122 
COMPS,ioos:station:USF.COMPS:ARP:1,2011-03-01T02:42:00Z,28.4330,-82.6670,0.294,1111122 
COMPS,ioos:station:USF.COMPS:ARP:1,2011-03-01T02:48:00Z,28.4330,-82.6670,0.303,1111122 
COMPS,ioos:station:USF.COMPS:ARP:1,2011-03-01T02:54:00Z,28.4330,-82.6670,0.314,1111122 
COMPS,ioos:station:USF.COMPS:ARP:1,2011-03-01T03:00:00Z,28.4330,-82.6670,0.326,1111122 
COMPS,ioos:station:USF.COMPS:ARP:1,2011-03-01T03:06:00Z,28.4330,-82.6670,0.334,1111122 
COMPS,ioos:station:USF.COMPS:ARP:1,2011-03-01T03:12:00Z,28.4330,-82.6670,0.343,1111122 
COMPS,ioos:station:USF.COMPS:ARP:1,2011-03-01T03:18:00Z,28.4330,-82.6670,0.353,1111122 
COMPS,ioos:station:USF.COMPS:ARP:1,2011-03-01T03:24:00Z,28.4330,-82.6670,0.353,1111122 
COMPS,ioos:station:USF.COMPS:ARP:1,2011-03-01T03:30:00Z,28.4330,-82.6670,0.36,1111122 
COMPS,ioos:station:USF.COMPS:ARP:1,2011-03-01T03:36:00Z,28.4330,-82.6670,0.36,1111122 
COMPS,ioos:station:USF.COMPS:ARP:1,2011-03-01T03:42:00Z,28.4330,-82.6670,0.357,1111122 
COMPS,ioos:station:USF.COMPS:ARP:1,2011-03-01T03:48:00Z,28.4330,-82.6670,0.359,1111122 
COMPS,ioos:station:USF.COMPS:ARP:1,2011-03-01T03:54:00Z,28.4330,-82.6670,0.348,1111122 
COMPS,ioos:station:USF.COMPS:ARP:1,2011-03-01T04:00:00Z,28.4330,-82.6670,0.341,1111122 
COMPS,ioos:station:USF.COMPS:ARP:1,2011-03-01T04:06:00Z,28.4330,-82.6670,0.327,1111122 
COMPS,ioos:station:USF.COMPS:ARP:1,2011-03-01T04:12:00Z,28.4330,-82.6670,0.309,1111122 
COMPS,ioos:station:USF.COMPS:ARP:1,2011-03-01T04:18:00Z,28.4330,-82.6670,0.3,1111122 
COMPS,ioos:station:USF.COMPS:ARP:1,2011-03-01T04:24:00Z,28.4330,-82.6670,0.294,1111122 
COMPS,ioos:station:USF.COMPS:ARP:1,2011-03-01T04:30:00Z,28.4330,-82.6670,0.286,1111122 
COMPS,ioos:station:USF.COMPS:ARP:1,2011-03-01T04:36:00Z,28.4330,-82.6670,0.275,1111122 
COMPS,ioos:station:USF.COMPS:ARP:1,2011-03-01T04:42:00Z,28.4330,-82.6670,0.269,1111122 
COMPS,ioos:station:USF.COMPS:ARP:1,2011-03-01T04:48:00Z,28.4330,-82.6670,0.261,1111122 
COMPS,ioos:station:USF.COMPS:ARP:1,2011-03-01T04:54:00Z,28.4330,-82.6670,0.251,1111122 
COMPS,ioos:station:USF.COMPS:ARP:1,2011-03-01T05:00:00Z,28.4330,-82.6670,0.234,1111122 
COMPS,ioos:station:USF.COMPS:ARP:1,2011-03-01T05:06:00Z,28.4330,-82.6670,0.222,1111122 
COMPS,ioos:station:USF.COMPS:ARP:1,2011-03-01T05:12:00Z,28.4330,-82.6670,0.232,1111122 
COMPS,ioos:station:USF.COMPS:ARP:1,2011-03-01T05:18:00Z,28.4330,-82.6670,0.209,1111122 
COMPS,ioos:station:USF.COMPS:ARP:1,2011-03-01T05:24:00Z,28.4330,-82.6670,0.196,1111122 
COMPS,ioos:station:USF.COMPS:ARP:1,2011-03-01T05:30:00Z,28.4330,-82.6670,0.187,1111122 
COMPS,ioos:station:USF.COMPS:ARP:1,2011-03-01T05:36:00Z,28.4330,-82.6670,0.177,1111122 
COMPS,ioos:station:USF.COMPS:ARP:1,2011-03-01T05:42:00Z,28.4330,-82.6670,0.164,1111122 
COMPS,ioos:station:USF.COMPS:ARP:1,2011-03-01T05:48:00Z,28.4330,-82.6670,0.158,1111122 
COMPS,ioos:station:USF.COMPS:ARP:1,2011-03-01T05:54:00Z,28.4330,-82.6670,0.144,1111122 
COMPS,ioos:station:USF.COMPS:ARP:1,2011-03-01T06:00:00Z,28.4330,-82.6670,0.133,1111122 
COMPS,ioos:station:USF.COMPS:ARP:1,2011-03-01T06:06:00Z,28.4330,-82.6670,0.124,1111122 
COMPS,ioos:station:USF.COMPS:ARP:1,2011-03-01T06:12:00Z,28.4330,-82.6670,0.11,1111122 
COMPS,ioos:station:USF.COMPS:ARP:1,2011-03-01T06:18:00Z,28.4330,-82.6670,0.095,1111122 
COMPS,ioos:station:USF.COMPS:ARP:1,2011-03-01T06:24:00Z,28.4330,-82.6670,0.084,1111122 
COMPS,ioos:station:USF.COMPS:ARP:1,2011-03-01T06:30:00Z,28.4330,-82.6670,0.068,1111122 
COMPS,ioos:station:USF.COMPS:ARP:1,2011-03-01T06:36:00Z,28.4330,-82.6670,0.05,1111122 
COMPS,ioos:station:USF.COMPS:ARP:1,2011-03-01T06:42:00Z,28.4330,-82.6670,0.033,1111122 
COMPS,ioos:station:USF.COMPS:ARP:1,2011-03-01T06:48:00Z,28.4330,-82.6670,0.016,1111122 
COMPS,ioos:station:USF.COMPS:ARP:1,2011-03-01T06:54:00Z,28.4330,-82.6670,-0.002,1111122 
COMPS,ioos:station:USF.COMPS:ARP:1,2011-03-01T07:00:00Z,28.4330,-82.6670,-0.018,1111122 
COMPS,ioos:station:USF.COMPS:ARP:1,2011-03-01T07:06:00Z,28.4330,-82.6670,-0.035,1111122 
COMPS,ioos:station:USF.COMPS:ARP:1,2011-03-01T07:12:00Z,28.4330,-82.6670,-0.054,1111122 
COMPS,ioos:station:USF.COMPS:ARP:1,2011-03-01T07:18:00Z,28.4330,-82.6670,-0.071,1111122 
COMPS,ioos:station:USF.COMPS:ARP:1,2011-03-01T07:24:00Z,28.4330,-82.6670,-0.087,1111122 
COMPS,ioos:station:USF.COMPS:ARP:1,2011-03-01T07:30:00Z,28.4330,-82.6670,-0.103,1111122 
COMPS,ioos:station:USF.COMPS:ARP:1,2011-03-01T07:36:00Z,28.4330,-82.6670,-0.122,1111122 
COMPS,ioos:station:USF.COMPS:ARP:1,2011-03-01T07:42:00Z,28.4330,-82.6670,-0.136,1111122 
COMPS,ioos:station:USF.COMPS:ARP:1,2011-03-01T07:48:00Z,28.4330,-82.6670,-0.153,1111122 
COMPS,ioos:station:USF.COMPS:ARP:1,2011-03-01T07:54:00Z,28.4330,-82.6670,-0.17,1111122 
COMPS,ioos:station:USF.COMPS:ARP:1,2011-03-01T08:00:00Z,28.4330,-82.6670,-0.186,1111122 
COMPS,ioos:station:USF.COMPS:ARP:1,2011-03-01T08:06:00Z,28.4330,-82.6670,-0.199,1111122 
COMPS,ioos:station:USF.COMPS:ARP:1,2011-03-01T08:12:00Z,28.4330,-82.6670,-0.212,1111122 
COMPS,ioos:station:USF.COMPS:ARP:1,2011-03-01T08:18:00Z,28.4330,-82.6670,-0.228,1111122 
COMPS,ioos:station:USF.COMPS:ARP:1,2011-03-01T08:24:00Z,28.4330,-82.6670,-0.244,1111122 
COMPS,ioos:station:USF.COMPS:ARP:1,2011-03-01T08:30:00Z,28.4330,-82.6670,-0.257,1111122 
COMPS,ioos:station:USF.COMPS:ARP:1,2011-03-01T08:36:00Z,28.4330,-82.6670,-0.272,1111122 
COMPS,ioos:station:USF.COMPS:ARP:1,2011-03-01T08:42:00Z,28.4330,-82.6670,-0.286,1111122 
COMPS,ioos:station:USF.COMPS:ARP:1,2011-03-01T08:48:00Z,28.4330,-82.6670,-0.299,1111122 
COMPS,ioos:station:USF.COMPS:ARP:1,2011-03-01T08:54:00Z,28.4330,-82.6670,-0.313,1111122 
COMPS,ioos:station:USF.COMPS:ARP:1,2011-03-01T09:00:00Z,28.4330,-82.6670,-0.327,1111122 
COMPS,ioos:station:USF.COMPS:ARP:1,2011-03-01T09:06:00Z,28.4330,-82.6670,-0.339,1111122 
COMPS,ioos:station:USF.COMPS:ARP:1,2011-03-01T09:12:00Z,28.4330,-82.6670,-0.352,1111122 
COMPS,ioos:station:USF.COMPS:ARP:1,2011-03-01T09:18:00Z,28.4330,-82.6670,-0.363,1111122 
COMPS,ioos:station:USF.COMPS:ARP:1,2011-03-01T09:24:00Z,28.4330,-82.6670,-0.375,1111122 
COMPS,ioos:station:USF.COMPS:ARP:1,2011-03-01T09:30:00Z,28.4330,-82.6670,-0.386,1111122 
COMPS,ioos:station:USF.COMPS:ARP:1,2011-03-01T09:36:00Z,28.4330,-82.6670,-0.397,1111122 
COMPS,ioos:station:USF.COMPS:ARP:1,2011-03-01T09:42:00Z,28.4330,-82.6670,-0.407,1111122 
COMPS,ioos:station:USF.COMPS:ARP:1,2011-03-01T09:48:00Z,28.4330,-82.6670,-0.418,1111122 
COMPS,ioos:station:USF.COMPS:ARP:1,2011-03-01T09:54:00Z,28.4330,-82.6670,-0.428,1111122 
COMPS,ioos:station:USF.COMPS:ARP:1,2011-03-01T10:00:00Z,28.4330,-82.6670,-0.438,1111122 
COMPS,ioos:station:USF.COMPS:ARP:1,2011-03-01T10:06:00Z,28.4330,-82.6670,-0.448,1111122 
COMPS,ioos:station:USF.COMPS:ARP:1,2011-03-01T10:12:00Z,28.4330,-82.6670,-0.458,1111122 
COMPS,ioos:station:USF.COMPS:ARP:1,2011-03-01T10:18:00Z,28.4330,-82.6670,-0.467,1111122 
COMPS,ioos:station:USF.COMPS:ARP:1,2011-03-01T10:24:00Z,28.4330,-82.6670,-0.476,1111122 
COMPS,ioos:station:USF.COMPS:ARP:1,2011-03-01T10:30:00Z,28.4330,-82.6670,-0.486,1111122 
COMPS,ioos:station:USF.COMPS:ARP:1,2011-03-01T10:36:00Z,28.4330,-82.6670,-0.494,1111122 
COMPS,ioos:station:USF.COMPS:ARP:1,2011-03-01T10:42:00Z,28.4330,-82.6670,-0.501,1111122 
COMPS,ioos:station:USF.COMPS:ARP:1,2011-03-01T10:48:00Z,28.4330,-82.6670,-0.509,1111122 
COMPS,ioos:station:USF.COMPS:ARP:1,2011-03-01T10:54:00Z,28.4330,-82.6670,-0.517,1111122 
COMPS,ioos:station:USF.COMPS:ARP:1,2011-03-01T11:00:00Z,28.4330,-82.6670,-0.523,1111122 
COMPS,ioos:station:USF.COMPS:ARP:1,2011-03-01T11:06:00Z,28.4330,-82.6670,-0.529,1111122 
COMPS,ioos:station:USF.COMPS:ARP:1,2011-03-01T11:12:00Z,28.4330,-82.6670,-0.536,1111122 
COMPS,ioos:station:USF.COMPS:ARP:1,2011-03-01T11:18:00Z,28.4330,-82.6670,-0.542,1111122 
COMPS,ioos:station:USF.COMPS:ARP:1,2011-03-01T11:24:00Z,28.4330,-82.6670,-0.547,1111122 
COMPS,ioos:station:USF.COMPS:ARP:1,2011-03-01T11:30:00Z,28.4330,-82.6670,-0.552,1111122 
COMPS,ioos:station:USF.COMPS:ARP:1,2011-03-01T11:36:00Z,28.4330,-82.6670,-0.556,1111122 
COMPS,ioos:station:USF.COMPS:ARP:1,2011-03-01T11:42:00Z,28.4330,-82.6670,-0.561,1111122 
COMPS,ioos:station:USF.COMPS:ARP:1,2011-03-01T11:48:00Z,28.4330,-82.6670,-0.564,1111122 
COMPS,ioos:station:USF.COMPS:ARP:1,2011-03-01T11:54:00Z,28.4330,-82.6670,-0.568,1111122 
COMPS,ioos:station:USF.COMPS:ARP:1,2011-03-01T12:00:00Z,28.4330,-82.6670,-0.572,1111122 
COMPS,ioos:station:USF.COMPS:ARP:1,2011-03-01T12:06:00Z,28.4330,-82.6670,-0.575,1111122 
COMPS,ioos:station:USF.COMPS:ARP:1,2011-03-01T12:12:00Z,28.4330,-82.6670,-0.577,1111122 
COMPS,ioos:station:USF.COMPS:ARP:1,2011-03-01T12:18:00Z,28.4330,-82.6670,-0.571,1111122 
COMPS,ioos:station:USF.COMPS:ARP:1,2011-03-01T12:24:00Z,28.4330,-82.6670,-0.569,1111122 
COMPS,ioos:station:USF.COMPS:ARP:1,2011-03-01T12:30:00Z,28.4330,-82.6670,-0.565,1111122 
COMPS,ioos:station:USF.COMPS:ARP:1,2011-03-01T12:36:00Z,28.4330,-82.6670,-0.561,1111122 
COMPS,ioos:station:USF.COMPS:ARP:1,2011-03-01T12:42:00Z,28.4330,-82.6670,-0.554,1111122 
COMPS,ioos:station:USF.COMPS:ARP:1,2011-03-01T12:48:00Z,28.4330,-82.6670,-0.548,1111122 
COMPS,ioos:station:USF.COMPS:ARP:1,2011-03-01T12:54:00Z,28.4330,-82.6670,-0.543,1111122 
COMPS,ioos:station:USF.COMPS:ARP:1,2011-03-01T13:00:00Z,28.4330,-82.6670,-0.535,1111122 
COMPS,ioos:station:USF.COMPS:ARP:1,2011-03-01T13:06:00Z,28.4330,-82.6670,-0.526,1111122 
COMPS,ioos:station:USF.COMPS:ARP:1,2011-03-01T13:12:00Z,28.4330,-82.6670,-0.513,1111122 
COMPS,ioos:station:USF.COMPS:ARP:1,2011-03-01T13:18:00Z,28.4330,-82.6670,-0.501,1111122 
COMPS,ioos:station:USF.COMPS:ARP:1,2011-03-01T13:24:00Z,28.4330,-82.6670,-0.488,1111122 
COMPS,ioos:station:USF.COMPS:ARP:1,2011-03-01T13:30:00Z,28.4330,-82.6670,-0.472,1111122 
COMPS,ioos:station:USF.COMPS:ARP:1,2011-03-01T13:36:00Z,28.4330,-82.6670,-0.456,1111122 
COMPS,ioos:station:USF.COMPS:ARP:1,2011-03-01T13:42:00Z,28.4330,-82.6670,-0.439,1111122 
COMPS,ioos:station:USF.COMPS:ARP:1,2011-03-01T13:48:00Z,28.4330,-82.6670,-0.422,1111122 
COMPS,ioos:station:USF.COMPS:ARP:1,2011-03-01T13:54:00Z,28.4330,-82.6670,-0.403,1111122 
COMPS,ioos:station:USF.COMPS:ARP:1,2011-03-01T14:00:00Z,28.4330,-82.6670,-0.385,1111122 
COMPS,ioos:station:USF.COMPS:ARP:1,2011-03-01T14:06:00Z,28.4330,-82.6670,-0.365,1111122 
COMPS,ioos:station:USF.COMPS:ARP:1,2011-03-01T14:12:00Z,28.4330,-82.6670,-0.347,1111122 
COMPS,ioos:station:USF.COMPS:ARP:1,2011-03-01T14:18:00Z,28.4330,-82.6670,-0.327,1111122 
COMPS,ioos:station:USF.COMPS:ARP:1,2011-03-01T14:24:00Z,28.4330,-82.6670,-0.307,1111122 
COMPS,ioos:station:USF.COMPS:ARP:1,2011-03-01T14:30:00Z,28.4330,-82.6670,-0.287,1111122 
COMPS,ioos:station:USF.COMPS:ARP:1,2011-03-01T14:36:00Z,28.4330,-82.6670,-0.267,1111122 
COMPS,ioos:station:USF.COMPS:ARP:1,2011-03-01T14:42:00Z,28.4330,-82.6670,-0.246,1111122 
COMPS,ioos:station:USF.COMPS:ARP:1,2011-03-01T14:48:00Z,28.4330,-82.6670,-0.226,1111122 
COMPS,ioos:station:USF.COMPS:ARP:1,2011-03-01T14:54:00Z,28.4330,-82.6670,-0.208,1111122 
COMPS,ioos:station:USF.COMPS:ARP:1,2011-03-01T15:00:00Z,28.4330,-82.6670,-0.187,1111122 
COMPS,ioos:station:USF.COMPS:ARP:1,2011-03-01T15:06:00Z,28.4330,-82.6670,-0.171,1111122 
COMPS,ioos:station:USF.COMPS:ARP:1,2011-03-01T15:12:00Z,28.4330,-82.6670,-0.151,1111122 
COMPS,ioos:station:USF.COMPS:ARP:1,2011-03-01T15:18:00Z,28.4330,-82.6670,-0.133,1111122 
COMPS,ioos:station:USF.COMPS:ARP:1,2011-03-01T15:24:00Z,28.4330,-82.6670,-0.115,1111122 
COMPS,ioos:station:USF.COMPS:ARP:1,2011-03-01T15:30:00Z,28.4330,-82.6670,-0.1,1111122 
COMPS,ioos:station:USF.COMPS:ARP:1,2011-03-01T15:36:00Z,28.4330,-82.6670,-0.086,1111122 
COMPS,ioos:station:USF.COMPS:ARP:1,2011-03-01T15:42:00Z,28.4330,-82.6670,-0.072,1111122 
COMPS,ioos:station:USF.COMPS:ARP:1,2011-03-01T15:48:00Z,28.4330,-82.6670,-0.057,1111122 
COMPS,ioos:station:USF.COMPS:ARP:1,2011-03-01T15:54:00Z,28.4330,-82.6670,-0.043,1111122 
COMPS,ioos:station:USF.COMPS:ARP:1,2011-03-01T16:00:00Z,28.4330,-82.6670,-0.029,1111122 
COMPS,ioos:station:USF.COMPS:ARP:1,2011-03-01T16:06:00Z,28.4330,-82.6670,-0.016,1111122 
COMPS,ioos:station:USF.COMPS:ARP:1,2011-03-01T16:12:00Z,28.4330,-82.6670,-0.002,1111122 
COMPS,ioos:station:USF.COMPS:ARP:1,2011-03-01T16:18:00Z,28.4330,-82.6670,0.01,1111122 
COMPS,ioos:station:USF.COMPS:ARP:1,2011-03-01T16:24:00Z,28.4330,-82.6670,0.021,1111122 
COMPS,ioos:station:USF.COMPS:ARP:1,2011-03-01T16:30:00Z,28.4330,-82.6670,0.042,1111122 
COMPS,ioos:station:USF.COMPS:ARP:1,2011-03-01T16:36:00Z,28.4330,-82.6670,0.059,1111122 
COMPS,ioos:station:USF.COMPS:ARP:1,2011-03-01T16:42:00Z,28.4330,-82.6670,0.072,1111122 
COMPS,ioos:station:USF.COMPS:ARP:1,2011-03-01T16:48:00Z,28.4330,-82.6670,0.084,1111122 
COMPS,ioos:station:USF.COMPS:ARP:1,2011-03-01T16:54:00Z,28.4330,-82.6670,0.089,1111122 
COMPS,ioos:station:USF.COMPS:ARP:1,2011-03-01T17:00:00Z,28.4330,-82.6670,0.087,1111122 
COMPS,ioos:station:USF.COMPS:ARP:1,2011-03-01T17:06:00Z,28.4330,-82.6670,0.086,1111122 
COMPS,ioos:station:USF.COMPS:ARP:1,2011-03-01T17:12:00Z,28.4330,-82.6670,0.087,1111122 
COMPS,ioos:station:USF.COMPS:ARP:1,2011-03-01T17:18:00Z,28.4330,-82.6670,0.088,1111122 
COMPS,ioos:station:USF.COMPS:ARP:1,2011-03-01T17:24:00Z,28.4330,-82.6670,0.092,1111122 
COMPS,ioos:station:USF.COMPS:ARP:1,2011-03-01T17:30:00Z,28.4330,-82.6670,0.103,1111122 
COMPS,ioos:station:USF.COMPS:ARP:1,2011-03-01T17:36:00Z,28.4330,-82.6670,0.105,1111122 
COMPS,ioos:station:USF.COMPS:ARP:1,2011-03-01T17:42:00Z,28.4330,-82.6670,0.104,1111122 
COMPS,ioos:station:USF.COMPS:ARP:1,2011-03-01T17:48:00Z,28.4330,-82.6670,0.11,1111122 
COMPS,ioos:station:USF.COMPS:ARP:1,2011-03-01T17:54:00Z,28.4330,-82.6670,0.1,1111122 
COMPS,ioos:station:USF.COMPS:ARP:1,2011-03-01T18:00:00Z,28.4330,-82.6670,0.092,1111122 
COMPS,ioos:station:USF.COMPS:ARP:1,2011-03-01T18:06:00Z,28.4330,-82.6670,0.074,1111122 
COMPS,ioos:station:USF.COMPS:ARP:1,2011-03-01T18:12:00Z,28.4330,-82.6670,0.063,1111122 
COMPS,ioos:station:USF.COMPS:ARP:1,2011-03-01T18:18:00Z,28.4330,-82.6670,0.046,1111122 
COMPS,ioos:station:USF.COMPS:ARP:1,2011-03-01T18:24:00Z,28.4330,-82.6670,0.036,1111122 
COMPS,ioos:station:USF.COMPS:ARP:1,2011-03-01T18:30:00Z,28.4330,-82.6670,0.034,1111122 
COMPS,ioos:station:USF.COMPS:ARP:1,2011-03-01T18:36:00Z,28.4330,-82.6670,0.019,1111122 
COMPS,ioos:station:USF.COMPS:ARP:1,2011-03-01T18:42:00Z,28.4330,-82.6670,0.015,1111122 
COMPS,ioos:station:USF.COMPS:ARP:1,2011-03-01T18:48:00Z,28.4330,-82.6670,0.011,1111122 
COMPS,ioos:station:USF.COMPS:ARP:1,2011-03-01T18:54:00Z,28.4330,-82.6670,0.009,1111122 
COMPS,ioos:station:USF.COMPS:ARP:1,2011-03-01T19:00:00Z,28.4330,-82.6670,0.001,1111122 
COMPS,ioos:station:USF.COMPS:ARP:1,2011-03-01T19:06:00Z,28.4330,-82.6670,-0.003,1111122 
COMPS,ioos:station:USF.COMPS:ARP:1,2011-03-01T19:12:00Z,28.4330,-82.6670,-0.013,1111122 
COMPS,ioos:station:USF.COMPS:ARP:1,2011-03-01T19:18:00Z,28.4330,-82.6670,-0.021,1111122 
COMPS,ioos:station:USF.COMPS:ARP:1,2011-03-01T19:24:00Z,28.4330,-82.6670,-0.027,1111122 
COMPS,ioos:station:USF.COMPS:ARP:1,2011-03-01T19:30:00Z,28.4330,-82.6670,-0.027,1111122 
COMPS,ioos:station:USF.COMPS:ARP:1,2011-03-01T19:36:00Z,28.4330,-82.6670,-0.037,1111122 
COMPS,ioos:station:USF.COMPS:ARP:1,2011-03-01T19:42:00Z,28.4330,-82.6670,-0.048,1111122 
COMPS,ioos:station:USF.COMPS:ARP:1,2011-03-01T19:48:00Z,28.4330,-82.6670,-0.053,1111122 
COMPS,ioos:station:USF.COMPS:ARP:1,2011-03-01T19:54:00Z,28.4330,-82.6670,-0.059,1111122 
COMPS,ioos:station:USF.COMPS:ARP:1,2011-03-01T20:00:00Z,28.4330,-82.6670,-0.067,1111122 
COMPS,ioos:station:USF.COMPS:ARP:1,2011-03-01T20:06:00Z,28.4330,-82.6670,-0.073,1111122 
COMPS,ioos:station:USF.COMPS:ARP:1,2011-03-01T20:12:00Z,28.4330,-82.6670,-0.082,1111122 
COMPS,ioos:station:USF.COMPS:ARP:1,2011-03-01T20:18:00Z,28.4330,-82.6670,-0.09,1111122 
COMPS,ioos:station:USF.COMPS:ARP:1,2011-03-01T20:24:00Z,28.4330,-82.6670,-0.097,1111122 
COMPS,ioos:station:USF.COMPS:ARP:1,2011-03-01T20:30:00Z,28.4330,-82.6670,-0.104,1111122 
COMPS,ioos:station:USF.COMPS:ARP:1,2011-03-01T20:36:00Z,28.4330,-82.6670,-0.107,1111122 
COMPS,ioos:station:USF.COMPS:ARP:1,2011-03-01T20:42:00Z,28.4330,-82.6670,-0.117,1111122 
COMPS,ioos:station:USF.COMPS:ARP:1,2011-03-01T20:48:00Z,28.4330,-82.6670,-0.12,1111122 
COMPS,ioos:station:USF.COMPS:ARP:1,2011-03-01T20:54:00Z,28.4330,-82.6670,-0.132,1111122 
COMPS,ioos:station:USF.COMPS:ARP:1,2011-03-01T21:00:00Z,28.4330,-82.6670,-0.141,1111122 
COMPS,ioos:station:USF.COMPS:ARP:1,2011-03-01T21:06:00Z,28.4330,-82.6670,-0.151,1111122 
COMPS,ioos:station:USF.COMPS:ARP:1,2011-03-01T21:12:00Z,28.4330,-82.6670,-0.161,1111122 
COMPS,ioos:station:USF.COMPS:ARP:1,2011-03-01T21:18:00Z,28.4330,-82.6670,-0.169,1111122 
COMPS,ioos:station:USF.COMPS:ARP:1,2011-03-01T21:24:00Z,28.4330,-82.6670,-0.182,1111122 
COMPS,ioos:station:USF.COMPS:ARP:1,2011-03-01T21:30:00Z,28.4330,-82.6670,-0.192,1111122 
COMPS,ioos:station:USF.COMPS:ARP:1,2011-03-01T21:36:00Z,28.4330,-82.6670,-0.202,1111122 
COMPS,ioos:station:USF.COMPS:ARP:1,2011-03-01T21:42:00Z,28.4330,-82.6670,-0.21,1111122 
COMPS,ioos:station:USF.COMPS:ARP:1,2011-03-01T21:48:00Z,28.4330,-82.6670,-0.218,1111122 
COMPS,ioos:station:USF.COMPS:ARP:1,2011-03-01T21:54:00Z,28.4330,-82.6670,-0.226,1111122 
COMPS,ioos:station:USF.COMPS:ARP:1,2011-03-01T22:00:00Z,28.4330,-82.6670,-0.233,1111122 
COMPS,ioos:station:USF.COMPS:ARP:1,2011-03-01T22:06:00Z,28.4330,-82.6670,-0.244,1111122 
COMPS,ioos:station:USF.COMPS:ARP:1,2011-03-01T22:12:00Z,28.4330,-82.6670,-0.254,1111122 
COMPS,ioos:station:USF.COMPS:ARP:1,2011-03-01T22:18:00Z,28.4330,-82.6670,-0.26,1111122 
COMPS,ioos:station:USF.COMPS:ARP:1,2011-03-01T22:24:00Z,28.4330,-82.6670,-0.265,1111122 
COMPS,ioos:station:USF.COMPS:ARP:1,2011-03-01T22:30:00Z,28.4330,-82.6670,-0.272,1111122 
COMPS,ioos:station:USF.COMPS:ARP:1,2011-03-01T22:36:00Z,28.4330,-82.6670,-0.279,1111122 
COMPS,ioos:station:USF.COMPS:ARP:1,2011-03-01T22:42:00Z,28.4330,-82.6670,-0.283,1111122 
COMPS,ioos:station:USF.COMPS:ARP:1,2011-03-01T22:48:00Z,28.4330,-82.6670,-0.283,1111122 
COMPS,ioos:station:USF.COMPS:ARP:1,2011-03-01T22:54:00Z,28.4330,-82.6670,-0.292,1111122 
COMPS,ioos:station:USF.COMPS:ARP:1,2011-03-01T23:00:00Z,28.4330,-82.6670,-0.292,1111122 
COMPS,ioos:station:USF.COMPS:ARP:1,2011-03-01T23:06:00Z,28.4330,-82.6670,-0.291,1111122 
COMPS,ioos:station:USF.COMPS:ARP:1,2011-03-01T23:12:00Z,28.4330,-82.6670,-0.294,1111122 
COMPS,ioos:station:USF.COMPS:ARP:1,2011-03-01T23:18:00Z,28.4330,-82.6670,-0.295,1111122 
COMPS,ioos:station:USF.COMPS:ARP:1,2011-03-01T23:24:00Z,28.4330,-82.6670,-0.29,1111122 
COMPS,ioos:station:USF.COMPS:ARP:1,2011-03-01T23:30:00Z,28.4330,-82.6670,-0.297,1111122 
COMPS,ioos:station:USF.COMPS:ARP:1,2011-03-01T23:36:00Z,28.4330,-82.6670,-0.301,1111122 
COMPS,ioos:station:USF.COMPS:ARP:1,2011-03-01T23:42:00Z,28.4330,-82.6670,-0.3,1111122 
COMPS,ioos:station:USF.COMPS:ARP:1,2011-03-01T23:48:00Z,28.4330,-82.6670,-0.304,1111122 
COMPS,ioos:station:USF.COMPS:ARP:1,2011-03-01T23:54:00Z,28.4330,-82.6670,-0.3,1111122 
COMPS,ioos:station:USF.COMPS:ARP:1,2011-03-02T00:00:00Z,28.4330,-82.6670,-0.298,1111122 
COMPS,ioos:station:USF.COMPS:ARP:1,2011-03-02T00:06:00Z,28.4330,-82.6670,-0.294,1111122 
COMPS,ioos:station:USF.COMPS:ARP:1,2011-03-02T00:12:00Z,28.4330,-82.6670,-0.291,1111122 
COMPS,ioos:station:USF.COMPS:ARP:1,2011-03-02T00:18:00Z,28.4330,-82.6670,-0.287,1111122 
COMPS,ioos:station:USF.COMPS:ARP:1,2011-03-02T00:24:00Z,28.4330,-82.6670,-0.279,1111122 
COMPS,ioos:station:USF.COMPS:ARP:1,2011-03-02T00:30:00Z,28.4330,-82.6670,-0.273,1111122 
COMPS,ioos:station:USF.COMPS:ARP:1,2011-03-02T00:36:00Z,28.4330,-82.6670,-0.272,1111122 
COMPS,ioos:station:USF.COMPS:ARP:1,2011-03-02T00:42:00Z,28.4330,-82.6670,-0.266,1111122 
COMPS,ioos:station:USF.COMPS:ARP:1,2011-03-02T00:48:00Z,28.4330,-82.6670,-0.261,1111122 
COMPS,ioos:station:USF.COMPS:ARP:1,2011-03-02T00:54:00Z,28.4330,-82.6670,-0.26,1111122 
COMPS,ioos:station:USF.COMPS:ARP:1,2011-03-02T01:00:00Z,28.4330,-82.6670,-0.253,1111122 
COMPS,ioos:station:USF.COMPS:ARP:1,2011-03-02T01:06:00Z,28.4330,-82.6670,-0.248,1111122 
COMPS,ioos:station:USF.COMPS:ARP:1,2011-03-02T01:12:00Z,28.4330,-82.6670,-0.238,1111122 
COMPS,ioos:station:USF.COMPS:ARP:1,2011-03-02T01:18:00Z,28.4330,-82.6670,-0.228,1111122 
COMPS,ioos:station:USF.COMPS:ARP:1,2011-03-02T01:24:00Z,28.4330,-82.6670,-0.213,1111122 
COMPS,ioos:station:USF.COMPS:ARP:1,2011-03-02T01:30:00Z,28.4330,-82.6670,-0.203,1111122 
COMPS,ioos:station:USF.COMPS:ARP:1,2011-03-02T01:36:00Z,28.4330,-82.6670,-0.19,1111122 
COMPS,ioos:station:USF.COMPS:ARP:1,2011-03-02T01:42:00Z,28.4330,-82.6670,-0.181,1111122 
COMPS,ioos:station:USF.COMPS:ARP:1,2011-03-02T01:48:00Z,28.4330,-82.6670,-0.171,1111122 
COMPS,ioos:station:USF.COMPS:ARP:1,2011-03-02T01:54:00Z,28.4330,-82.6670,-0.162,1111122 
COMPS,ioos:station:USF.COMPS:ARP:1,2011-03-02T02:00:00Z,28.4330,-82.6670,-0.153,1111122 
COMPS,ioos:station:USF.COMPS:ARP:1,2011-03-02T02:06:00Z,28.4330,-82.6670,-0.141,1111122 
COMPS,ioos:station:USF.COMPS:ARP:1,2011-03-02T02:12:00Z,28.4330,-82.6670,-0.13,1111122 
COMPS,ioos:station:USF.COMPS:ARP:1,2011-03-02T02:18:00Z,28.4330,-82.6670,-0.12,1111122 
COMPS,ioos:station:USF.COMPS:ARP:1,2011-03-02T02:24:00Z,28.4330,-82.6670,-0.107,1111122 
COMPS,ioos:station:USF.COMPS:ARP:1,2011-03-02T02:30:00Z,28.4330,-82.6670,-0.095,1111122 
COMPS,ioos:station:USF.COMPS:ARP:1,2011-03-02T02:36:00Z,28.4330,-82.6670,-0.083,1111122 
COMPS,ioos:station:USF.COMPS:ARP:1,2011-03-02T02:42:00Z,28.4330,-82.6670,-0.07,1111122 
COMPS,ioos:station:USF.COMPS:ARP:1,2011-03-02T02:48:00Z,28.4330,-82.6670,-0.06,1111122 
COMPS,ioos:station:USF.COMPS:ARP:1,2011-03-02T02:54:00Z,28.4330,-82.6670,-0.047,1111122 